DW1912 Weather Reports


Display with metric or nautical units.
time (UTC)temp
F
wind
direction
speed
MPH
gust
MPH
rain 1hr
in
rain 24hr
in
rain mn
in
humidity
%
barometer
mb
20260507063705 42 61 0.0 1.0 0.00 0.00 0.00 81 1008.1
20260507063703 38 0 0.0 0.0 0.00 0.06 0.00 88 1006.0
20260507063205 42 61 0.0 2.0 0.00 0.00 0.00 81 1008.0
20260507060702 37 0 0.0 0.0 0.00 0.06 0.00 89 1005.8
20260507060205 38 44 1.0 3.0 0.00 0.00 0.00 86 1007.9
20260507060202 37 0 0.0 0.0 0.00 0.06 0.00 89 1005.7
20260507053702 37 0 0.0 0.0 0.00 0.06 0.00 89 1005.7
20260507053205 39 63 1.0 3.0 0.00 0.00 0.00 84 1007.8
20260507050704 38 65 1.0 3.0 0.00 0.00 0.00 85 1007.7
20260507050204 38 54 1.0 3.0 0.00 0.00 0.00 85 1007.7
20260507043702 37 0 0.0 0.0 0.00 0.06 0.00 87 1006.3
20260507043204 39 67 1.0 3.0 0.00 0.00 0.00 81 1008.0
20260507043202 37 0 0.0 0.0 0.00 0.06 0.00 87 1006.2
20260507040705 39 66 1.0 3.0 0.00 0.00 0.00 85 1008.1
20260507040703 38 0 0.0 0.0 0.00 0.06 0.00 86 1006.4
20260507040204 39 42 1.0 3.0 0.00 0.00 0.00 84 1008.1
20260507040202 38 0 0.0 0.0 0.00 0.06 0.00 86 1006.4
20260507033705 41 146 1.0 2.0 0.00 0.00 0.00 81 1008.3
20260507033203 38 0 0.0 0.0 0.00 0.06 0.00 86 1006.7
20260507030704 41 146 0.0 2.0 0.00 0.00 0.00 82 1008.4
20260507030204 41 87 1.0 5.0 0.00 0.00 0.00 83 1008.4
20260507030202 37 0 0.0 0.0 0.00 0.06 0.00 89 1006.8
20260507023704 41 80 2.0 3.0 0.00 0.00 0.00 83 1008.5
20260507023204 41 75 2.0 3.0 0.00 0.00 0.00 83 1008.5
20260507023202 37 0 0.0 0.0 0.00 0.06 0.00 89 1006.7
20260507020704 40 78 2.0 3.0 0.00 0.00 0.00 84 1008.8
20260507020204 41 68 2.0 5.0 0.00 0.00 0.00 83 1008.8
20260507013704 41 70 2.0 5.0 0.00 0.00 0.00 83 1009.1
20260507013204 40 74 2.0 6.0 0.00 0.00 0.00 83 1009.1
20260507010704 40 82 3.0 5.0 0.00 0.00 0.00 83 1009.4
20260507010204 40 83 2.0 6.0 0.00 0.00 0.00 82 1009.5
20260507010202 37 0 0.0 0.0 0.00 0.06 0.00 89 1007.6
20260507003704 40 80 3.0 6.0 0.00 0.00 0.00 83 1009.6
20260507003702 37 0 0.0 0.0 0.00 0.06 0.00 89 1007.7
20260507003204 41 82 3.0 6.0 0.00 0.00 0.00 82 1009.7
20260507000703 37 0 0.0 0.0 0.00 0.06 0.00 89 1007.9
20260507000205 41 92 2.0 6.0 0.00 0.00 0.00 82 1009.8
20260506233705 41 85 2.0 5.0 0.00 0.00 0.00 81 1010.0
20260506233205 41 87 2.0 5.0 0.00 0.00 0.00 81 1010.0
20260506233203 37 0 0.0 0.0 0.00 0.06 0.00 88 1008.2
20260506230703 37 0 0.0 0.0 0.00 0.06 0.00 87 1008.3
20260506230205 40 89 2.0 6.0 0.00 0.00 0.00 81 1010.0
20260506230203 37 0 0.0 0.0 0.00 0.06 0.00 88 1008.3
20260506223703 37 0 0.0 0.0 0.00 0.06 0.06 88 1008.6
20260506223205 40 72 2.0 5.0 0.00 0.00 0.00 81 1010.2
20260506220705 41 75 2.0 3.0 0.00 0.00 0.00 81 1010.3
20260506220703 37 0 0.0 0.0 0.00 0.06 0.06 88 1008.7
20260506220204 41 77 2.0 5.0 0.00 0.00 0.00 81 1010.3
20260506213704 40 78 3.0 5.0 0.00 0.00 0.00 82 1010.4
20260506213203 37 0 0.0 0.0 0.00 0.06 0.06 88 1008.8
20260506210704 41 67 2.0 5.0 0.00 0.00 0.00 80 1010.2
20260506210204 37 0 0.0 0.0 0.00 0.06 0.06 88 1008.8
20260506203705 41 45 3.0 3.0 0.00 0.00 0.00 83 1010.0
20260506203204 40 47 2.0 6.0 0.00 0.00 0.00 84 1010.0
20260506200705 40 46 3.0 6.0 0.00 0.00 0.00 85 1010.0
20260506200703 37 0 0.0 0.0 0.00 0.06 0.06 92 1008.6
20260506200205 40 33 2.0 6.0 0.00 0.00 0.00 85 1009.9
20260506200203 37 0 0.0 0.0 0.00 0.06 0.06 92 1008.7
20260506193705 42 45 3.0 5.0 0.00 0.00 0.00 81 1009.8
20260506193205 42 48 3.0 6.0 0.00 0.00 0.00 82 1009.7
20260506190704 44 42 3.0 6.0 0.00 0.00 0.00 78 1009.7
20260506190203 40 0 0.0 0.0 0.01 0.06 0.06 90 1008.2
20260506183705 47 32 3.0 7.0 0.00 0.00 0.00 73 1009.6
20260506183204 41 0 0.0 0.0 0.02 0.06 0.06 89 1008.4
20260506180705 48 62 5.0 7.0 0.00 0.00 0.00 67 1009.9
20260506180703 43 0 0.0 0.0 0.02 0.06 0.06 84 1008.4
20260506180204 49 63 1.0 6.0 0.00 0.00 0.00 67 1009.9
20260506173705 49 58 3.0 6.0 0.00 0.00 0.00 67 1010.1
20260506173204 49 62 3.0 8.0 0.00 0.00 0.00 67 1010.2
20260506170704 39 0 0.0 0.0 0.02 0.03 0.03 91 1009.1
20260506170205 39 0 0.0 0.0 0.02 0.03 0.03 92 1009.1
20260506163704 38 0 0.0 0.0 0.01 0.02 0.02 91 1009.2
20260506163204 38 0 0.0 0.0 0.01 0.02 0.02 91 1009.3
20260506160704 47 67 3.0 5.0 0.00 0.00 0.00 72 1010.5
20260506160204 46 351 3.0 8.0 0.00 0.00 0.00 72 1010.6
20260506160202 40 0 0.0 0.0 0.00 0.01 0.01 86 1009.1
20260506153204 47 288 0.0 3.0 0.00 0.00 0.00 70 1010.7
20260506153202 43 0 0.0 0.0 0.00 0.01 0.01 83 1009.4
20260506150704 48 177 1.0 3.0 0.00 0.00 0.00 68 1011.0
20260506150701 40 0 0.0 0.0 0.00 0.01 0.01 89 1009.8
20260506150204 48 174 0.0 3.0 0.00 0.00 0.00 69 1011.0
20260506150201 40 0 0.0 0.0 0.00 0.01 0.01 88 1009.9
20260506143705 47 146 0.0 3.0 0.00 0.00 0.00 69 1011.4
20260506143205 47 229 1.0 3.0 0.00 0.00 0.00 70 1011.4
20260506140705 47 233 1.0 3.0 0.00 0.00 0.00 72 1012.0
20260506140702 40 0 0.0 0.0 0.00 0.01 0.01 87 1010.5
20260506140205 46 49 0.0 3.0 0.00 0.00 0.00 71 1012.1
20260506140201 39 0 0.0 0.0 0.00 0.01 0.01 87 1010.4
20260506133705 46 96 1.0 3.0 0.00 0.00 0.00 74 1012.3
20260506133702 40 0 0.0 0.0 0.00 0.01 0.01 89 1010.6
20260506133201 39 0 0.0 0.0 0.00 0.01 0.01 91 1010.6
20260506130704 46 214 3.0 7.0 0.00 0.00 0.00 73 1012.3
20260506130701 38 0 0.0 0.0 0.00 0.01 0.01 91 1010.8
20260506130205 46 174 2.0 5.0 0.00 0.00 0.00 73 1012.4
20260506130202 38 0 0.0 0.0 0.00 0.01 0.01 90 1010.8
20260506123705 45 195 1.0 3.0 0.00 0.00 0.00 76 1012.3
20260506123702 38 0 0.0 0.0 0.00 0.01 0.01 90 1010.8
20260506123205 45 230 3.0 6.0 0.00 0.00 0.00 77 1012.4
20260506120702 38 0 0.0 0.0 0.00 0.01 0.01 92 1011.1
20260506120205 46 174 2.0 7.0 0.00 0.00 0.00 71 1012.4
20260506120202 38 0 0.0 0.0 0.00 0.01 0.01 91 1011.0
20260506113704 46 205 3.0 8.0 0.00 0.00 0.00 75 1012.4
20260506113204 46 189 3.0 8.0 0.00 0.00 0.00 76 1012.4
20260506113202 44 0 0.0 0.0 0.00 0.01 0.01 80 1011.0
20260506110704 44 190 3.0 5.0 0.00 0.00 0.00 78 1012.5
20260506110702 40 0 0.0 0.0 0.00 0.01 0.01 83 1011.0
20260506110205 44 174 2.0 7.0 0.00 0.00 0.00 78 1012.5
20260506110202 40 0 0.0 0.0 0.00 0.01 0.01 81 1011.0
20260506103705 43 225 2.0 5.0 0.00 0.00 0.00 82 1012.5
20260506103702 40 0 0.0 0.0 0.00 0.01 0.01 80 1011.0
20260506103205 43 170 2.0 5.0 0.00 0.00 0.00 81 1012.5
20260506103202 40 0 0.0 0.0 0.00 0.01 0.01 83 1011.1
20260506100704 44 230 2.0 5.0 0.00 0.00 0.00 80 1012.9
20260506100702 37 0 0.0 0.0 0.00 0.01 0.01 85 1011.1
20260506100204 45 229 1.0 8.0 0.00 0.00 0.00 77 1012.9
20260506100202 38 0 0.0 0.0 0.00 0.01 0.01 86 1011.2
20260506093702 38 0 0.0 0.0 0.00 0.01 0.01 83 1011.2
20260506093204 44 59 5.0 8.0 0.00 0.00 0.00 72 1012.8
20260506090702 38 0 0.0 0.0 0.00 0.01 0.01 86 1011.0
20260506090204 42 107 3.0 7.0 0.00 0.00 0.00 76 1012.9
20260506090202 38 0 0.0 0.0 0.00 0.01 0.01 88 1011.0
20260506083704 42 74 2.0 6.0 0.00 0.00 0.00 78 1012.9
20260506083702 36 0 0.0 0.0 0.00 0.01 0.01 92 1010.9
20260506083204 42 35 1.0 8.0 0.00 0.00 0.00 80 1012.9
20260506080704 40 67 3.0 6.0 0.00 0.00 0.00 81 1012.8
20260506080702 35 0 0.0 0.0 0.00 0.01 0.01 93 1010.9
20260506080204 39 47 4.0 8.0 0.00 0.00 0.00 80 1012.8
20260506080202 35 0 0.0 0.0 0.00 0.01 0.01 92 1010.8
20260506073204 39 41 3.0 7.0 0.00 0.00 0.00 83 1012.7
20260506073202 35 0 0.0 0.0 0.01 0.01 0.01 91 1010.7
20260506070704 38 40 5.0 8.0 0.00 0.00 0.00 85 1012.5
20260506070204 38 61 4.0 9.0 0.00 0.00 0.00 85 1012.5